Tiempo cada hora Abdulgazino

Hoy, 21 Octubre, Miércoles

Tiempo Temperatura Precipitaciones Viento Presión Humedad
00:00 +1°C° 0 mm 1 mps 706 mmHg 88%
01:00 +1°C° 0 mm 1 mps 706 mmHg 88%
02:00 +1°C° 0 mm 1 mps 706 mmHg 88%
03:00 +1°C° 0 mm 1 mps 706 mmHg 88%
04:00 +1°C° 0 mm 1 mps 706 mmHg 88%
05:00 +1°C° 0 mm 1 mps 706 mmHg 90%
06:00 -2°C° 0 mm 2 mps 706 mmHg 91%
07:00 -2°C° 0 mm 2 mps 705 mmHg 92%
08:00 -1°C° 0 mm 3 mps 705 mmHg 83%
09:00 0°C° 0 mm 4 mps 705 mmHg 74%
10:00 +1°C° 0 mm 5 mps 705 mmHg 65%
11:00 +1°C° 0.1 mm 5 mps 705 mmHg 64%
12:00 +1°C° 0.1 mm 6 mps 705 mmHg 63%
13:00 +2°C° 0.1 mm 6 mps 705 mmHg 62%
14:00 +1°C° 0.1 mm 6 mps 705 mmHg 65%
15:00 0°C° 0.1 mm 5 mps 705 mmHg 69%
16:00 -1°C° 0.1 mm 5 mps 705 mmHg 73%
17:00 -1°C° 0.1 mm 5 mps 705 mmHg 78%
18:00 -2°C° 0.1 mm 5 mps 705 mmHg 84%
19:00 -4°C° 0.1 mm 5 mps 705 mmHg 89%
20:00 -3°C° 0.1 mm 4 mps 705 mmHg 88%
21:00 -3°C° 0.1 mm 4 mps 705 mmHg 88%
22:00 -4°C° 0.1 mm 4 mps 705 mmHg 88%
23:00 -4°C° 0.1 mm 4 mps 705 mmHg 87%

Mañana, 22 Octubre, Jueves

Tiempo Temperatura Precipitaciones Viento Presión Humedad
00:00 -5°C° 0.1 mm 5 mps 705 mmHg 87%
01:00 -6°C° 0.1 mm 5 mps 705 mmHg 87%
02:00 -6°C° 0 mm 5 mps 705 mmHg 84%
03:00 -7°C° 0 mm 5 mps 705 mmHg 81%
04:00 -7°C° 0 mm 5 mps 706 mmHg 78%
05:00 -8°C° 0 mm 6 mps 706 mmHg 79%
06:00 -8°C° 0 mm 6 mps 706 mmHg 80%
07:00 -8°C° 0 mm 6 mps 706 mmHg 82%
08:00 -8°C° 0 mm 6 mps 706 mmHg 75%
09:00 -6°C° 0 mm 6 mps 707 mmHg 69%
10:00 -5°C° 0 mm 6 mps 707 mmHg 62%
11:00 -5°C° 0 mm 6 mps 707 mmHg 61%
12:00 -4°C° 0 mm 6 mps 707 mmHg 61%
13:00 -4°C° 0 mm 6 mps 707 mmHg 61%
14:00 -5°C° 0 mm 6 mps 708 mmHg 64%
15:00 -5°C° 0 mm 6 mps 708 mmHg 67%
16:00 -5°C° 0 mm 6 mps 708 mmHg 70%
17:00 -6°C° 0 mm 5 mps 708 mmHg 75%
18:00 -6°C° 0 mm 5 mps 708 mmHg 79%
19:00 -7°C° 0 mm 4 mps 709 mmHg 84%
20:00 -7°C° 0 mm 4 mps 709 mmHg 84%
21:00 -7°C° 0 mm 4 mps 709 mmHg 84%
22:00 -7°C° 0 mm 5 mps 709 mmHg 84%
23:00 -7°C° 0 mm 4 mps 709 mmHg 84%

Pasado mañana, 23 Octubre, Viernes

Tiempo Temperatura Precipitaciones Viento Presión Humedad
00:00 -8°C° 0 mm 4 mps 709 mmHg 85%
01:00 -8°C° 0 mm 4 mps 709 mmHg 85%
02:00 -8°C° 0 mm 4 mps 709 mmHg 85%
03:00 -8°C° 0 mm 4 mps 709 mmHg 86%
04:00 -8°C° 0 mm 4 mps 710 mmHg 87%
05:00 -8°C° 0 mm 4 mps 710 mmHg 87%
06:00 -8°C° 0 mm 4 mps 710 mmHg 88%
07:00 -8°C° 0 mm 3 mps 710 mmHg 89%
08:00 -7°C° 0 mm 3 mps 710 mmHg 82%
09:00 -6°C° 0 mm 3 mps 711 mmHg 76%
10:00 -5°C° 0 mm 4 mps 711 mmHg 69%
11:00 -4°C° 0 mm 3 mps 711 mmHg 66%
12:00 -4°C° 0 mm 3 mps 711 mmHg 64%
13:00 -2°C° 0 mm 3 mps 711 mmHg 62%
14:00 -2°C° 0 mm 3 mps 711 mmHg 65%
15:00 -4°C° 0 mm 3 mps 711 mmHg 68%
16:00 -4°C° 0 mm 3 mps 711 mmHg 71%
17:00 -4°C° 0 mm 2 mps 711 mmHg 75%
18:00 -4°C° 0 mm 2 mps 711 mmHg 79%
19:00 -3°C° 0 mm 1 mps 711 mmHg 83%
20:00 -3°C° 0 mm 1 mps 711 mmHg 83%
21:00 -3°C° 0 mm 1 mps 711 mmHg 84%
22:00 -5°C° 0 mm 2 mps 711 mmHg 84%
23:00 -4°C° 0.1 mm 2 mps 711 mmHg 87%

24 Octubre, Sábado

Tiempo Temperatura Precipitaciones Viento Presión Humedad
00:00 -4°C° 0.1 mm 2 mps 710 mmHg 91%
01:00 -4°C° 0.1 mm 2 mps 710 mmHg 94%
02:00 -4°C° 0.2 mm 2 mps 710 mmHg 95%
03:00 -4°C° 0.2 mm 2 mps 709 mmHg 95%
04:00 -3°C° 0.2 mm 2 mps 709 mmHg 96%
05:00 -3°C° 0.1 mm 2 mps 708 mmHg 96%
06:00 -3°C° 0.1 mm 2 mps 708 mmHg 95%
07:00 -3°C° 0.1 mm 2 mps 707 mmHg 95%
08:00 -2°C° 0.1 mm 2 mps 707 mmHg 94%
09:00 -1°C° 0.1 mm 2 mps 707 mmHg 93%
10:00 +2°C° 0.1 mm 2 mps 706 mmHg 91%
11:00 +2°C° 0.2 mm 2 mps 706 mmHg 93%
12:00 +2°C° 0.2 mm 3 mps 706 mmHg 95%
13:00 +2°C° 0.2 mm 3 mps 705 mmHg 97%
14:00 +3°C° 0.8 mm 3 mps 705 mmHg 97%
15:00 +3°C° 0.8 mm 3 mps 704 mmHg 97%
16:00 +3°C° 0.8 mm 4 mps 704 mmHg 97%
17:00 +4°C° 1.5 mm 4 mps 704 mmHg 96%
18:00 +3°C° 1.5 mm 5 mps 703 mmHg 95%
19:00 +5°C° 1.5 mm 5 mps 703 mmHg 95%
20:00 +5°C° 0.3 mm 5 mps 703 mmHg 95%
21:00 +5°C° 0.3 mm 5 mps 703 mmHg 95%
22:00 +5°C° 0.3 mm 5 mps 703 mmHg 95%
23:00 +4°C° 0.1 mm 6 mps 704 mmHg 94%

25 Octubre, Domingo

Tiempo Temperatura Precipitaciones Viento Presión Humedad
00:00 +4°C° 0.1 mm 6 mps 704 mmHg 93%
01:00 +4°C° 0.1 mm 6 mps 704 mmHg 91%
02:00 +3°C° 0 mm 5 mps 705 mmHg 92%
03:00 +3°C° 0 mm 5 mps 705 mmHg 93%
04:00 +4°C° 0 mm 4 mps 705 mmHg 94%
05:00 +4°C° 0 mm 4 mps 706 mmHg 94%
06:00 +3°C° 0 mm 3 mps 706 mmHg 95%
07:00 +3°C° 0 mm 3 mps 706 mmHg 95%
08:00 +4°C° 0 mm 3 mps 707 mmHg 93%
09:00 +4°C° 0 mm 3 mps 707 mmHg 92%
10:00 +4°C° 0 mm 3 mps 707 mmHg 90%
11:00 +5°C° 0 mm 3 mps 708 mmHg 88%
12:00 +5°C° 0 mm 3 mps 708 mmHg 86%
13:00 +7°C° 0 mm 3 mps 708 mmHg 85%
14:00 +5°C° 0 mm 3 mps 708 mmHg 86%
15:00 +5°C° 0 mm 3 mps 708 mmHg 88%
16:00 +5°C° 0 mm 2 mps 708 mmHg 90%
17:00 +5°C° 0 mm 2 mps 708 mmHg 91%
18:00 +5°C° 0 mm 1 mps 708 mmHg 92%
19:00 +5°C° 0 mm 1 mps 709 mmHg 94%
20:00 +5°C° 0 mm 1 mps 709 mmHg 93%
21:00 +4°C° 0 mm 0 mps 709 mmHg 93%
22:00 +4°C° 0 mm 0 mps 709 mmHg 93%
23:00 +4°C° 0 mm 0 mps 709 mmHg 93%

26 Octubre, Lunes

Tiempo Temperatura Precipitaciones Viento Presión Humedad
00:00 +4°C° 0 mm 0 mps 709 mmHg 93%
01:00 +4°C° 0 mm 0 mps 709 mmHg 93%
02:00 +4°C° 0 mm 0 mps 709 mmHg 94%
03:00 +4°C° 0 mm 0 mps 709 mmHg 94%
04:00 +4°C° 0 mm 0 mps 709 mmHg 94%
05:00 +4°C° 0 mm 0 mps 710 mmHg 94%
06:00 +3°C° 0 mm 0 mps 710 mmHg 94%
07:00 +3°C° 0 mm 0 mps 710 mmHg 94%
08:00 +4°C° 0 mm 0 mps 710 mmHg 92%
09:00 +5°C° 0 mm 0 mps 711 mmHg 89%
10:00 +6°C° 0 mm 0 mps 711 mmHg 86%
11:00 +6°C° 0 mm 0 mps 711 mmHg 83%
12:00 +7°C° 0 mm 0 mps 711 mmHg 79%
13:00 +8°C° 0 mm 0 mps 712 mmHg 76%
14:00 +8°C° 0 mm 1 mps 712 mmHg 79%
15:00 +8°C° 0 mm 1 mps 712 mmHg 82%
16:00 +7°C° 0 mm 1 mps 712 mmHg 85%
17:00 +6°C° 0 mm 1 mps 712 mmHg 88%
18:00 +5°C° 0 mm 1 mps 712 mmHg 90%
19:00 +4°C° 0 mm 1 mps 713 mmHg 92%
20:00 +4°C° 0 mm 1 mps 713 mmHg 92%
21:00 +3°C° 0 mm 1 mps 713 mmHg 91%
22:00 +3°C° 0 mm 1 mps 713 mmHg 91%
23:00 +3°C° 0 mm 1 mps 713 mmHg 91%

27 Octubre, Martes

Tiempo Temperatura Precipitaciones Viento Presión Humedad
00:00 +2°C° 0 mm 1 mps 713 mmHg 91%
01:00 +2°C° 0 mm 1 mps 714 mmHg 91%
02:00 +2°C° 0 mm 1 mps 714 mmHg 91%
03:00 +2°C° 0 mm 1 mps 714 mmHg 92%
04:00 +1°C° 0 mm 1 mps 714 mmHg 92%
05:00 +1°C° 0 mm 1 mps 715 mmHg 89%
06:00 +1°C° 0 mm 1 mps 715 mmHg 85%
07:00 +1°C° 0 mm 1 mps 715 mmHg 82%
08:00 +2°C° 0 mm 1 mps 716 mmHg 76%
09:00 +4°C° 0 mm 1 mps 716 mmHg 70%
10:00 +5°C° 0 mm 1 mps 717 mmHg 65%
11:00 +6°C° 0 mm 1 mps 717 mmHg 61%
12:00 +7°C° 0 mm 1 mps 717 mmHg 58%
13:00 +8°C° 0 mm 1 mps 718 mmHg 54%
14:00 +7°C° 0 mm 1 mps 718 mmHg 59%
15:00 +6°C° 0 mm 1 mps 718 mmHg 64%
16:00 +6°C° 0 mm 1 mps 718 mmHg 68%
17:00 +5°C° 0 mm 1 mps 718 mmHg 72%
18:00 +4°C° 0 mm 1 mps 718 mmHg 75%
19:00 +3°C° 0 mm 1 mps 718 mmHg 79%
20:00 +3°C° 0 mm 1 mps 718 mmHg 80%
21:00 +2°C° 0 mm 1 mps 718 mmHg 81%
22:00 +2°C° 0 mm 1 mps 719 mmHg 82%
23:00 +2°C° 0 mm 1 mps 719 mmHg 84%
Mostrar más

Necesitamos Su Consentimiento

Meteoprog y nuestros Proveedores de Servicios pueden almacenar y acceder a sus datos personales como cookies, identificadores de dispositivo u otras tecnologías similares de su dispositivo y procesar dichos datos para personalizar contenido y anuncios, además de ofrecer funciones de redes sociales y analizar el tráfico.

  • Almacenar y/o acceder a información en su dispositivo

    Se puede almacenar o acceder a cookies, identificadores de dispositivo u otra información de su dispositivo para los fines anteriormente indicados.

  • Anuncios y contenido personalizados, medición de anuncios y contenido, percepciones del público, y desarrollo de productos

    Los anuncios y el contenido pueden personalizarse en base a su perfil. Se pueden añadir más datos para personalizar mejor los anuncios y contenidos. Se puede medir el rendimiento de los anuncios y contenidos. Se puede obtener la percepción sobre el público que ha visto los anuncios y contenidos. Dichos datos pueden usarse para desarrollar o mejorar la experiencia del usuario, sistemas y software.

Al hacer clic en ‘Estoy De Acuerdo’ usted permitirá el uso de las cookies, identificadores de dispositivo, balizas web u otras tecnologías similares indicadas. Su configuración puede cambiarse desde el navegador de su dispositivo.

Para ciertos fines, los intereses legítimos pueden ser considerados por encima del consentimiento. Puede leer más sobre ello en nuestra Política de Privacidad y Cookies.